QPF
0.00 0.00 0.00 0.00 0.00 0.00 0.00 0.00 0.00 0.00 0.00 0.00 0.00 0.00 0.00 0.00 0.00 0.00 0.00 0.01 0.02 0.02 0.03 0.05 0.06 0.06 0.09 0.17 0.22 0.26 0.37 0.31 0.20 0.13 0.09 0.10 0.10 0.10 0.08 0.06 0.05 0.05 0.06 0.04
0.00 0.00 0.00 0.00 0.00 0.00 0.00 0.00 0.00 0.00 0.00 0.00 0.00 0.00 0.00 0.00 0.00 0.00 0.01 0.02 0.03 0.03 0.03 0.04 0.06 0.05 0.06 0.09 0.15 0.25 0.29 0.25 0.20 0.14 0.11 0.11 0.12 0.13 0.11 0.09 0.07 0.06 0.05 0.04
0.00 0.00 0.00 0.00 0.00 0.00 0.00 0.00 0.00 0.00 0.00 0.00 0.00 0.00 0.00 0.00 0.01 0.01 0.01 0.02 0.03 0.02 0.02 0.03 0.04 0.04 0.05 0.07 0.10 0.20 0.23 0.20 0.16 0.14 0.13 0.11 0.12 0.13 0.12 0.10 0.07 0.05 0.05 0.04
0.00 0.00 0.00 0.00 0.00 0.00 0.00 0.00 0.00 0.00 0.00 0.00 0.00 0.00 0.00 0.00 0.01 0.01 0.01 0.01 0.02 0.02 0.02 0.03 0.03 0.03 0.05 0.07 0.10 0.17 0.22 0.19 0.17 0.15 0.12 0.08 0.07 0.07 0.06 0.07 0.07 0.07 0.05 0.04
0.00 0.00 0.00 0.00 0.00 0.00 0.00 0.00 0.00 0.00 0.00 0.00 0.00 0.00 0.00 0.00 0.00 0.01 0.01 0.01 0.01 0.01 0.02 0.02 0.02 0.02 0.04 0.06 0.09 0.14 0.22 0.27 0.23 0.19 0.15 0.10 0.09 0.08 0.08 0.09 0.08 0.07 0.06 0.04
0.00 0.00 0.00 0.00 0.00 0.00 0.00 0.00 0.00 0.00 0.00 0.00 0.00 0.00 0.00 0.00 0.00 0.01 0.01 0.01 0.01 0.01 0.01 0.02 0.02 0.02 0.03 0.06 0.07 0.09 0.19 0.26 0.26 0.24 0.20 0.15 0.10 0.08 0.08 0.05 0.04 0.05 0.06 0.05
0.00 0.00 0.00 0.00 0.00 0.00 0.00 0.00 0.00 0.00 0.00 0.00 0.00 0.00 0.00 0.00 0.00 0.00 0.00 0.01 0.01 0.01 0.01 0.01 0.01 0.01 0.03 0.04 0.05 0.07 0.14 0.20 0.21 0.23 0.22 0.18 0.17 0.12 0.09 0.05 0.03 0.04 0.04 0.05
0.00 0.00 0.00 0.00 0.00 0.00 0.00 0.00 0.00 0.00 0.00 0.00 0.00 0.00 0.00 0.00 0.00 0.00 0.00 0.00 0.00 0.00 0.01 0.01 0.01 0.01 0.01 0.03 0.05 0.09 0.13 0.16 0.18 0.19 0.20 0.15 0.12 0.10 0.08 0.06 0.04 0.04 0.04 0.05
0.00 0.00 0.00 0.00 0.00 0.00 0.00 0.00 0.00 0.00 0.00 0.00 0.00 0.00 0.00 0.00 0.00 0.00 0.00 0.00 0.00 0.00 0.01 0.01 0.01 0.01 0.02 0.04 0.07 0.11 0.13 0.13 0.14 0.13 0.15 0.13 0.09 0.06 0.06 0.06 0.06 0.05 0.06 0.06
0.00 0.00 0.00 0.00 0.00 0.00 0.00 0.00 0.00 0.00 0.00 0.00 0.00 0.00 0.00 0.00 0.01 0.00 0.00 0.00 0.01 0.01 0.01 0.01 0.02 0.02 0.02 0.02 0.04 0.07 0.08 0.09 0.10 0.10 0.10 0.10 0.10 0.06 0.06 0.07 0.06 0.05 0.05 0.06
0.00 0.00 0.00 0.00 0.00 0.00 0.00 0.00 0.00 0.00 0.00 0.00 0.00 0.00 0.00 0.00 0.00 0.01 0.01 0.00 0.01 0.02 0.01 0.02 0.02 0.02 0.02 0.01 0.02 0.03 0.04 0.05 0.06 0.09 0.07 0.07 0.09 0.07 0.06 0.06 0.05 0.06 0.06 0.05
0.00 0.00 0.00 0.00 0.00 0.00 0.00 0.00 0.00 0.00 0.00 0.00 0.00 0.00 0.00 0.00 0.00 0.01 0.01 0.00 0.01 0.02 0.02 0.03 0.04 0.03 0.02 0.01 0.01 0.01 0.02 0.02 0.03 0.03 0.03 0.04 0.06 0.07 0.06 0.06 0.09 0.12 0.13 0.10
0.00 0.00 0.00 0.00 0.00 0.00 0.00 0.00 0.00 0.00 0.00 0.00 0.00 0.00 0.00 0.00 0.00 0.00 0.00 0.01 0.02 0.03 0.03 0.04 0.04 0.03 0.01 0.01 0.02 0.02 0.02 0.02 0.02 0.02 0.01 0.02 0.04 0.06 0.05 0.05 0.07 0.09 0.09 0.10
0.00 0.00 0.00 0.00 0.00 0.00 0.00 0.00 0.00 0.00 0.00 0.00 0.00 0.00 0.00 0.00 0.00 0.01 0.01 0.01 0.02 0.03 0.02 0.03 0.04 0.02 0.01 0.02 0.02 0.02 0.02 0.02 0.03 0.02 0.02 0.02 0.03 0.05 0.05 0.05 0.04 0.05 0.05 0.06
0.00 0.00 0.00 0.00 0.00 0.00 0.00 0.00 0.00 0.00 0.00 0.00 0.00 0.00 0.00 0.00 0.01 0.01 0.01 0.01 0.01 0.01 0.02 0.02 0.03 0.03 0.03 0.03 0.04 0.03 0.02 0.03 0.04 0.03 0.03 0.05 0.07 0.07 0.06 0.05 0.05 0.06 0.06 0.06
0.00 0.00 0.00 0.00 0.00 0.00 0.00 0.00 0.00 0.00 0.00 0.00 0.00 0.00 0.00 0.00 0.01 0.02 0.02 0.02 0.01 0.02 0.03 0.03 0.03 0.03 0.04 0.04 0.04 0.02 0.02 0.03 0.04 0.04 0.03 0.05 0.05 0.06 0.07 0.08 0.08 0.08 0.09 0.09
0.00 0.00 0.00 0.00 0.00 0.00 0.00 0.00 0.00 0.00 0.00 0.00 0.00 0.00 0.00 0.01 0.01 0.02 0.02 0.02 0.01 0.02 0.05 0.07 0.06 0.05 0.05 0.05 0.03 0.02 0.02 0.02 0.03 0.04 0.04 0.05 0.04 0.06 0.07 0.09 0.09 0.08 0.09 0.11
0.00 0.00 0.00 0.00 0.00 0.00 0.00 0.00 0.00 0.00 0.00 0.00 0.00 0.00 0.01 0.01 0.01 0.02 0.02 0.02 0.02 0.02 0.03 0.05 0.07 0.08 0.07 0.06 0.04 0.03 0.03 0.02 0.03 0.04 0.05 0.05 0.05 0.08 0.10 0.09 0.08 0.09 0.10 0.14
0.00 0.01 0.00 0.00 0.00 0.00 0.00 0.00 0.00 0.00 0.01 0.01 0.01 0.01 0.02 0.02 0.02 0.02 0.02 0.02 0.03 0.03 0.04 0.04 0.06 0.09 0.09 0.09 0.08 0.06 0.05 0.04 0.06 0.08 0.08 0.07 0.08 0.10 0.11 0.10 0.11 0.13 0.14 0.16
0.00 0.01 0.01 0.00 0.00 0.00 0.01 0.01 0.00 0.00 0.01 0.01 0.01 0.01 0.02 0.02 0.02 0.02 0.02 0.02 0.03 0.04 0.05 0.05 0.07 0.07 0.08 0.12 0.13 0.10 0.09 0.08 0.07 0.09 0.09 0.10 0.13 0.15 0.16 0.17 0.17 0.20 0.20 0.20
0.00 0.00 0.01 0.01 0.00 0.01 0.01 0.01 0.00 0.00 0.01 0.00 0.01 0.01 0.01 0.01 0.01 0.01 0.02 0.02 0.02 0.03 0.04 0.05 0.07 0.06 0.05 0.06 0.08 0.09 0.11 0.11 0.11 0.12 0.14 0.16 0.19 0.20 0.22 0.23 0.22 0.24 0.25 0.26
0.00 0.00 0.00 0.00 0.00 0.00 0.01 0.00 0.00 0.00 0.00 0.01 0.01 0.01 0.02 0.02 0.02 0.02 0.02 0.03 0.03 0.03 0.04 0.04 0.06 0.06 0.06 0.07 0.08 0.11 0.13 0.15 0.17 0.19 0.21 0.19 0.20 0.21 0.21 0.22 0.22 0.22 0.23 0.23
0.01 0.01 0.01 0.01 0.01 0.01 0.00 0.00 0.01 0.01 0.01 0.01 0.01 0.01 0.01 0.02 0.02 0.04 0.05 0.04 0.03 0.03 0.03 0.03 0.04 0.05 0.05 0.06 0.09 0.12 0.15 0.19 0.20 0.21 0.21 0.20 0.19 0.18 0.17 0.17 0.18 0.18 0.18 0.17
0.01 0.01 0.01 0.01 0.02 0.02 0.01 0.01 0.01 0.01 0.01 0.01 0.01 0.01 0.01 0.03 0.03 0.04 0.05 0.05 0.04 0.04 0.04 0.04 0.05 0.06 0.07 0.08 0.10 0.13 0.14 0.16 0.17 0.17 0.19 0.18 0.17 0.16 0.14 0.13 0.14 0.14 0.15 0.15
0.01 0.01 0.01 0.02 0.02 0.03 0.02 0.01 0.01 0.01 0.02 0.02 0.02 0.02 0.02 0.02 0.02 0.03 0.04 0.05 0.05 0.04 0.04 0.04 0.06 0.06 0.07 0.09 0.10 0.12 0.12 0.12 0.12 0.12 0.12 0.14 0.15 0.14 0.12 0.10 0.10 0.11 0.11 0.11
0.02 0.02 0.02 0.02 0.02 0.02 0.02 0.01 0.02 0.02 0.02 0.03 0.03 0.02 0.02 0.01 0.01 0.02 0.03 0.03 0.03 0.02 0.02 0.03 0.04 0.05 0.06 0.07 0.09 0.11 0.12 0.12 0.12 0.10 0.09 0.08 0.08 0.08 0.08 0.07 0.06 0.07 0.06 0.06
MSLP
1010.84 1011.65 1012.24 1012.62 1012.79 1012.81 1012.72 1012.55 1012.32 1012.03 1011.67 1011.26 1010.79 1010.30 1009.83 1009.43 1009.14 1008.99 1008.97 1009.07 1009.24 1009.42 1009.57 1009.66 1009.70 1009.71 1009.76 1009.90 1010.18 1010.63 1011.25 1011.99 1012.79 1013.58 1014.27 1014.83 1015.24 1015.51 1015.69 1015.83 1015.99 1016.22 1016.53 1016.92
1011.15 1011.83 1012.28 1012.53 1012.64 1012.66 1012.65 1012.62 1012.56 1012.46 1012.27 1011.98 1011.57 1011.07 1010.54 1010.02 1009.60 1009.32 1009.21 1009.24 1009.37 1009.56 1009.72 1009.84 1009.89 1009.90 1009.93 1010.02 1010.26 1010.66 1011.26 1012.00 1012.83 1013.65 1014.41 1015.02 1015.47 1015.76 1015.93 1016.03 1016.15 1016.32 1016.59 1016.94
1011.20 1011.70 1012.00 1012.15 1012.22 1012.29 1012.40 1012.55 1012.72 1012.84 1012.85 1012.69 1012.34 1011.83 1011.20 1010.55 1009.97 1009.54 1009.31 1009.26 1009.36 1009.56 1009.77 1009.94 1010.04 1010.08 1010.11 1010.19 1010.39 1010.76 1011.32 1012.05 1012.88 1013.74 1014.53 1015.19 1015.68 1015.99 1016.16 1016.25 1016.33 1016.46 1016.68 1016.99
1011.00 1011.33 1011.49 1011.55 1011.63 1011.78 1012.06 1012.44 1012.86 1013.22 1013.43 1013.41 1013.11 1012.56 1011.83 1011.03 1010.27 1009.68 1009.30 1009.17 1009.24 1009.45 1009.71 1009.95 1010.13 1010.22 1010.28 1010.37 1010.54 1010.87 1011.39 1012.08 1012.90 1013.75 1014.57 1015.26 1015.79 1016.14 1016.33 1016.42 1016.48 1016.58 1016.76 1017.03
1010.65 1010.81 1010.84 1010.86 1010.97 1011.25 1011.72 1012.35 1013.03 1013.63 1014.03 1014.13 1013.87 1013.27 1012.43 1011.46 1010.53 1009.76 1009.24 1009.01 1009.05 1009.27 1009.59 1009.91 1010.16 1010.32 1010.42 1010.51 1010.66 1010.94 1011.40 1012.04 1012.81 1013.65 1014.47 1015.19 1015.76 1016.14 1016.37 1016.48 1016.55 1016.64 1016.80 1017.04
1010.23 1010.25 1010.20 1010.21 1010.39 1010.81 1011.48 1012.34 1013.26 1014.08 1014.64 1014.82 1014.58 1013.93 1012.97 1011.85 1010.75 1009.82 1009.17 1008.85 1008.85 1009.08 1009.45 1009.84 1010.16 1010.38 1010.51 1010.60 1010.72 1010.94 1011.33 1011.89 1012.61 1013.41 1014.21 1014.95 1015.55 1015.99 1016.27 1016.43 1016.53 1016.64 1016.79 1017.03
1009.81 1009.73 1009.64 1009.68 1009.94 1010.51 1011.36 1012.42 1013.53 1014.51 1015.18 1015.43 1015.18 1014.48 1013.42 1012.17 1010.93 1009.87 1009.12 1008.73 1008.70 1008.93 1009.34 1009.78 1010.15 1010.42 1010.56 1010.64 1010.71 1010.87 1011.17 1011.65 1012.29 1013.04 1013.83 1014.58 1015.22 1015.71 1016.05 1016.28 1016.43 1016.57 1016.75 1016.99
1009.44 1009.31 1009.21 1009.30 1009.66 1010.35 1011.35 1012.54 1013.77 1014.84 1015.57 1015.84 1015.57 1014.82 1013.69 1012.36 1011.04 1009.90 1009.09 1008.67 1008.61 1008.86 1009.28 1009.75 1010.16 1010.44 1010.59 1010.64 1010.67 1010.75 1010.97 1011.36 1011.93 1012.62 1013.39 1014.14 1014.82 1015.37 1015.78 1016.08 1016.30 1016.49 1016.70 1016.96
1009.10 1008.96 1008.91 1009.06 1009.51 1010.29 1011.36 1012.62 1013.89 1014.97 1015.70 1015.94 1015.66 1014.88 1013.73 1012.38 1011.04 1009.90 1009.09 1008.66 1008.62 1008.87 1009.31 1009.79 1010.21 1010.49 1010.62 1010.64 1010.62 1010.64 1010.79 1011.10 1011.60 1012.24 1012.98 1013.73 1014.44 1015.04 1015.52 1015.89 1016.18 1016.42 1016.67 1016.96
1008.77 1008.67 1008.68 1008.90 1009.41 1010.23 1011.32 1012.56 1013.78 1014.81 1015.48 1015.68 1015.37 1014.60 1013.48 1012.19 1010.92 1009.84 1009.09 1008.72 1008.70 1008.97 1009.41 1009.89 1010.29 1010.56 1010.68 1010.67 1010.62 1010.59 1010.69 1010.95 1011.39 1011.99 1012.70 1013.45 1014.17 1014.82 1015.35 1015.77 1016.11 1016.41 1016.69 1016.99
1008.42 1008.39 1008.48 1008.76 1009.31 1010.12 1011.15 1012.30 1013.40 1014.30 1014.87 1015.01 1014.69 1013.97 1012.94 1011.78 1010.65 1009.72 1009.09 1008.80 1008.84 1009.13 1009.57 1010.03 1010.41 1010.66 1010.76 1010.75 1010.68 1010.64 1010.72 1010.95 1011.36 1011.93 1012.61 1013.35 1014.07 1014.73 1015.29 1015.75 1016.12 1016.45 1016.75 1017.06
1008.05 1008.11 1008.28 1008.62 1009.17 1009.93 1010.85 1011.84 1012.77 1013.51 1013.95 1014.02 1013.71 1013.07 1012.18 1011.21 1010.28 1009.54 1009.06 1008.89 1008.99 1009.31 1009.74 1010.17 1010.53 1010.76 1010.86 1010.85 1010.80 1010.78 1010.87 1011.11 1011.51 1012.06 1012.71 1013.42 1014.12 1014.77 1015.33 1015.79 1016.18 1016.51 1016.82 1017.13
1007.70 1007.85 1008.09 1008.47 1009.00 1009.67 1010.44 1011.24 1011.97 1012.53 1012.83 1012.84 1012.55 1012.01 1011.31 1010.55 1009.86 1009.33 1009.03 1008.97 1009.14 1009.47 1009.88 1010.28 1010.61 1010.83 1010.93 1010.96 1010.96 1010.99 1011.12 1011.38 1011.79 1012.33 1012.95 1013.62 1014.28 1014.89 1015.42 1015.86 1016.24 1016.57 1016.87 1017.18
1007.43 1007.67 1007.98 1008.37 1008.86 1009.42 1010.02 1010.61 1011.13 1011.49 1011.67 1011.63 1011.37 1010.95 1010.44 1009.90 1009.44 1009.13 1008.99 1009.04 1009.26 1009.59 1009.96 1010.32 1010.61 1010.82 1010.95 1011.02 1011.09 1011.20 1011.40 1011.71 1012.13 1012.66 1013.25 1013.86 1014.46 1015.01 1015.49 1015.91 1016.26 1016.58 1016.88 1017.17
1007.33 1007.64 1007.99 1008.38 1008.80 1009.24 1009.67 1010.06 1010.37 1010.56 1010.61 1010.53 1010.32 1010.02 1009.68 1009.36 1009.11 1008.97 1008.97 1009.10 1009.33 1009.63 1009.95 1010.25 1010.51 1010.71 1010.86 1011.00 1011.15 1011.35 1011.63 1011.99 1012.44 1012.95 1013.50 1014.06 1014.59 1015.07 1015.50 1015.88 1016.22 1016.53 1016.83 1017.14
1007.45 1007.80 1008.17 1008.54 1008.89 1009.20 1009.46 1009.66 1009.78 1009.82 1009.78 1009.67 1009.50 1009.31 1009.12 1008.98 1008.90 1008.90 1008.98 1009.14 1009.36 1009.60 1009.85 1010.08 1010.29 1010.48 1010.67 1010.87 1011.10 1011.40 1011.75 1012.18 1012.65 1013.15 1013.66 1014.15 1014.62 1015.04 1015.43 1015.78 1016.12 1016.44 1016.77 1017.10
1007.81 1008.17 1008.53 1008.85 1009.10 1009.29 1009.40 1009.44 1009.40 1009.32 1009.20 1009.07 1008.95 1008.85 1008.79 1008.78 1008.82 1008.91 1009.03 1009.19 1009.35 1009.52 1009.68 1009.83 1009.99 1010.17 1010.38 1010.64 1010.96 1011.33 1011.76 1012.24 1012.73 1013.22 1013.70 1014.14 1014.56 1014.94 1015.30 1015.65 1016.01 1016.37 1016.75 1017.13
1008.37 1008.70 1009.00 1009.25 1009.41 1009.47 1009.45 1009.35 1009.20 1009.02 1008.86 1008.73 1008.65 1008.63 1008.66 1008.75 1008.87 1009.00 1009.13 1009.25 1009.34 1009.41 1009.48 1009.56 1009.67 1009.83 1010.06 1010.36 1010.75 1011.19 1011.69 1012.20 1012.71 1013.20 1013.66 1014.07 1014.46 1014.83 1015.19 1015.58 1015.98 1016.41 1016.86 1017.30
1009.03 1009.29 1009.51 1009.66 1009.71 1009.66 1009.52 1009.32 1009.08 1008.85 1008.67 1008.56 1008.52 1008.57 1008.68 1008.84 1009.01 1009.16 1009.27 1009.34 1009.36 1009.35 1009.33 1009.34 1009.40 1009.54 1009.78 1010.12 1010.55 1011.05 1011.59 1012.14 1012.67 1013.16 1013.61 1014.02 1014.41 1014.80 1015.20 1015.64 1016.12 1016.63 1017.16 1017.68
1009.68 1009.83 1009.94 1009.97 1009.91 1009.75 1009.52 1009.24 1008.96 1008.72 1008.54 1008.46 1008.49 1008.60 1008.78 1009.00 1009.20 1009.36 1009.46 1009.49 1009.45 1009.37 1009.28 1009.23 1009.26 1009.39 1009.63 1010.00 1010.46 1011.00 1011.57 1012.14 1012.69 1013.20 1013.66 1014.09 1014.51 1014.94 1015.41 1015.92 1016.48 1017.08 1017.70 1018.29
1010.20 1010.23 1010.21 1010.12 1009.95 1009.70 1009.40 1009.08 1008.78 1008.55 1008.41 1008.39 1008.48 1008.66 1008.91 1009.18 1009.43 1009.61 1009.70 1009.71 1009.63 1009.51 1009.39 1009.31 1009.32 1009.44 1009.69 1010.07 1010.55 1011.11 1011.70 1012.29 1012.86 1013.39 1013.88 1014.35 1014.82 1015.31 1015.85 1016.45 1017.09 1017.77 1018.45 1019.10
1010.55 1010.44 1010.29 1010.08 1009.82 1009.49 1009.15 1008.81 1008.53 1008.33 1008.25 1008.30 1008.47 1008.73 1009.05 1009.38 1009.67 1009.89 1010.00 1010.01 1009.93 1009.81 1009.68 1009.60 1009.60 1009.73 1009.99 1010.37 1010.87 1011.43 1012.04 1012.65 1013.24 1013.79 1014.32 1014.84 1015.37 1015.93 1016.54 1017.21 1017.92 1018.66 1019.38 1020.06
1010.70 1010.47 1010.20 1009.90 1009.55 1009.19 1008.82 1008.49 1008.24 1008.10 1008.10 1008.22 1008.47 1008.81 1009.21 1009.60 1009.94 1010.20 1010.36 1010.40 1010.36 1010.26 1010.16 1010.10 1010.12 1010.26 1010.53 1010.92 1011.42 1011.99 1012.60 1013.22 1013.83 1014.41 1014.98 1015.55 1016.13 1016.75 1017.42 1018.14 1018.89 1019.66 1020.39 1021.06
1010.68 1010.36 1010.01 1009.64 1009.25 1008.86 1008.50 1008.21 1008.01 1007.94 1008.00 1008.20 1008.53 1008.94 1009.40 1009.85 1010.26 1010.57 1010.78 1010.88 1010.89 1010.84 1010.79 1010.77 1010.83 1010.99 1011.28 1011.68 1012.17 1012.74 1013.36 1013.98 1014.60 1015.21 1015.81 1016.42 1017.05 1017.71 1018.41 1019.15 1019.92 1020.67 1021.39 1022.03
1010.56 1010.18 1009.79 1009.39 1009.00 1008.62 1008.30 1008.05 1007.91 1007.90 1008.03 1008.30 1008.68 1009.15 1009.66 1010.16 1010.62 1010.99 1011.25 1011.42 1011.50 1011.52 1011.53 1011.57 1011.67 1011.87 1012.17 1012.58 1013.07 1013.64 1014.25 1014.87 1015.50 1016.12 1016.75 1017.38 1018.03 1018.71 1019.42 1020.16 1020.91 1021.63 1022.30 1022.89
1010.39 1010.01 1009.62 1009.23 1008.86 1008.53 1008.25 1008.07 1007.99 1008.04 1008.23 1008.54 1008.96 1009.46 1010.00 1010.54 1011.03 1011.45 1011.77 1012.00 1012.16 1012.26 1012.34 1012.44 1012.59 1012.83 1013.15 1013.56 1014.05 1014.60 1015.19 1015.81 1016.44 1017.07 1017.70 1018.34 1019.00 1019.68 1020.38 1021.09 1021.80 1022.47 1023.09 1023.62
Thickness
5778 5763 5754 5758 5763 5764 5763 5757 5752 5762 5780 5777 5775 5778 5789 5796 5796 5792 5789 5786 5783 5781 5780 5776 5771 5767 5761 5755 5750 5746 5741 5737 5735 5731 5728 5725 5723 5724 5724 5725 5725 5725 5725 5725
5760 5755 5766 5770 5769 5765 5760 5752 5752 5763 5777 5776 5771 5775 5786 5791 5792 5792 5789 5786 5784 5779 5776 5773 5769 5766 5761 5755 5750 5746 5741 5738 5735 5732 5730 5727 5725 5724 5725 5725 5725 5725 5725 5725
5753 5763 5774 5767 5762 5758 5755 5751 5752 5755 5765 5771 5767 5763 5775 5785 5789 5790 5790 5788 5786 5782 5776 5771 5768 5764 5760 5755 5751 5746 5742 5738 5734 5732 5729 5726 5723 5722 5721 5723 5724 5725 5725 5724
5754 5766 5769 5763 5759 5757 5745 5763 5761 5758 5747 5738 5752 5734 5760 5771 5776 5782 5784 5784 5783 5781 5778 5772 5768 5764 5760 5757 5752 5747 5742 5738 5734 5731 5729 5727 5724 5722 5723 5724 5724 5724 5724 5724
5751 5763 5761 5757 5762 5763 5758 5768 5763 5756 5745 5736 5740 5731 5744 5763 5767 5775 5781 5782 5782 5781 5778 5773 5770 5766 5762 5758 5752 5748 5742 5738 5735 5732 5730 5728 5726 5725 5724 5724 5723 5723 5723 5724
5757 5769 5769 5767 5774 5773 5770 5758 5747 5734 5727 5718 5735 5729 5734 5752 5765 5773 5779 5781 5781 5779 5776 5772 5769 5765 5761 5757 5752 5747 5742 5737 5735 5733 5730 5728 5726 5724 5722 5722 5721 5721 5722 5723
5746 5758 5770 5775 5765 5766 5759 5732 5710 5710 5701 5708 5730 5728 5734 5764 5774 5777 5777 5777 5778 5777 5773 5769 5765 5762 5759 5755 5751 5747 5742 5738 5735 5732 5729 5729 5727 5725 5723 5723 5722 5721 5720 5721
5725 5729 5757 5768 5762 5751 5747 5735 5708 5700 5698 5707 5725 5724 5747 5771 5778 5780 5780 5778 5776 5773 5771 5768 5765 5762 5758 5754 5751 5747 5742 5738 5735 5732 5730 5729 5727 5726 5725 5725 5724 5722 5722 5722
5720 5727 5760 5771 5774 5761 5740 5733 5737 5712 5707 5705 5713 5730 5752 5771 5772 5774 5774 5774 5771 5770 5769 5766 5763 5760 5757 5753 5750 5746 5742 5738 5735 5733 5731 5728 5727 5726 5726 5725 5724 5723 5722 5722
5734 5728 5751 5766 5769 5763 5756 5738 5718 5707 5694 5695 5712 5722 5731 5756 5763 5767 5768 5769 5768 5767 5765 5763 5760 5758 5755 5753 5749 5746 5742 5738 5735 5733 5730 5729 5727 5727 5725 5723 5721 5721 5721 5720
5738 5728 5736 5748 5747 5745 5739 5733 5721 5707 5707 5694 5696 5715 5752 5756 5762 5764 5767 5768 5767 5765 5763 5761 5758 5756 5754 5751 5748 5745 5742 5738 5734 5732 5730 5728 5726 5725 5723 5722 5721 5720 5719 5718
5735 5721 5713 5731 5750 5756 5750 5738 5724 5713 5705 5702 5701 5718 5762 5762 5765 5766 5766 5768 5767 5765 5762 5759 5757 5754 5751 5749 5746 5744 5741 5738 5735 5732 5729 5727 5725 5723 5722 5720 5720 5719 5718 5717
5731 5715 5703 5710 5725 5741 5741 5737 5731 5721 5706 5696 5700 5723 5758 5759 5761 5764 5765 5765 5765 5763 5760 5757 5754 5751 5749 5747 5745 5742 5740 5738 5735 5732 5729 5727 5725 5723 5721 5720 5719 5718 5717 5715
5737 5713 5709 5704 5713 5729 5733 5735 5730 5723 5706 5702 5712 5729 5746 5751 5753 5756 5760 5762 5761 5759 5757 5754 5752 5750 5748 5746 5744 5742 5739 5738 5735 5732 5728 5726 5724 5722 5721 5719 5718 5716 5715 5713
5729 5711 5716 5722 5731 5733 5734 5734 5732 5730 5723 5717 5724 5728 5740 5745 5749 5752 5755 5756 5755 5753 5752 5750 5748 5746 5744 5743 5741 5740 5738 5736 5735 5731 5727 5725 5724 5722 5719 5717 5716 5714 5712 5711
5715 5709 5713 5715 5725 5728 5725 5729 5730 5730 5728 5727 5728 5730 5741 5744 5747 5747 5749 5751 5749 5748 5748 5747 5745 5743 5742 5740 5738 5737 5735 5734 5732 5729 5727 5725 5722 5720 5718 5716 5713 5711 5709 5707
5701 5702 5697 5696 5712 5717 5705 5717 5721 5723 5725 5727 5722 5729 5735 5736 5738 5740 5742 5745 5745 5744 5744 5742 5741 5740 5740 5738 5736 5734 5733 5732 5729 5726 5724 5722 5720 5718 5716 5713 5710 5708 5706 5704
5695 5688 5681 5684 5697 5685 5702 5722 5724 5718 5718 5723 5725 5727 5729 5731 5733 5735 5737 5738 5738 5739 5739 5738 5737 5736 5736 5736 5734 5732 5730 5729 5726 5723 5721 5719 5717 5714 5711 5709 5706 5704 5702 5699
5693 5686 5673 5669 5673 5682 5700 5714 5716 5712 5709 5718 5719 5721 5723 5726 5727 5726 5731 5732 5732 5732 5732 5732 5733 5733 5732 5731 5730 5728 5725 5724 5722 5719 5716 5714 5712 5709 5706 5704 5702 5699 5697 5693
5679 5679 5670 5663 5666 5665 5690 5710 5717 5711 5697 5712 5714 5713 5715 5717 5710 5713 5722 5723 5724 5724 5724 5725 5726 5726 5726 5725 5725 5722 5719 5717 5715 5714 5712 5710 5708 5705 5702 5699 5697 5694 5690 5686
5662 5661 5659 5658 5661 5671 5692 5703 5708 5689 5693 5707 5708 5708 5708 5707 5707 5710 5713 5713 5714 5714 5715 5717 5717 5717 5718 5719 5718 5715 5712 5709 5708 5707 5705 5703 5701 5699 5696 5693 5689 5686 5682 5678
5651 5650 5650 5650 5654 5662 5688 5693 5690 5690 5698 5700 5701 5701 5700 5700 5701 5703 5703 5703 5703 5704 5705 5707 5708 5708 5708 5710 5709 5706 5702 5701 5700 5698 5696 5694 5692 5690 5687 5684 5680 5676 5673 5669
5645 5649 5650 5654 5658 5669 5677 5681 5685 5688 5689 5691 5692 5693 5694 5692 5692 5692 5692 5693 5693 5694 5694 5696 5697 5696 5696 5697 5698 5695 5693 5692 5690 5688 5685 5683 5681 5679 5677 5674 5670 5666 5662 5659
5641 5646 5646 5650 5657 5663 5668 5673 5678 5681 5683 5685 5686 5686 5686 5684 5683 5683 5682 5681 5682 5683 5683 5685 5685 5684 5684 5685 5685 5683 5682 5681 5680 5676 5673 5671 5669 5666 5663 5660 5658 5654 5650 5647
5637 5640 5640 5643 5650 5656 5661 5665 5669 5672 5675 5677 5677 5678 5677 5677 5674 5673 5672 5671 5671 5671 5671 5672 5672 5671 5671 5671 5671 5671 5670 5670 5667 5664 5661 5658 5655 5652 5648 5643 5639 5637 5634 5633
5630 5634 5636 5640 5647 5648 5651 5657 5661 5663 5665 5666 5667 5667 5668 5668 5665 5663 5661 5661 5660 5659 5660 5660 5659 5659 5658 5658 5658 5657 5658 5658 5656 5652 5648 5645 5641 5638 5634 5630 5623 5619 5618 5616